星链-5114 (STARLINK-5114 )

导读

STARLINK-5114是美国太空探索技术公司(SpaceX)星链互联网卫星星座的一员,于北京时间2022年10月5日8点发射升空,旨在完成星链星座组网,为全球提供全天候、低时延的高速卫星互联网接入服务,填补地面网络覆盖盲区。该卫星运行在近地轨道,属于Starlink Group批次的组网卫星。

基本信息
目录编号:
54003
目录名称:
STARLINK-5114
国际标识:
2022-125AR
轨道中心:
EARTH
卫星名称:
星链-5114
卫星全名:
星链-5114 (STARLINK-5114 )
卫星状态:
在轨 (已飞行1438 天)
发射日期:
2022-10-05 UTC
国别 :
美国 (US)
星等 :
--
该卫星已列入 空间交会检测服务 Space Conjunction Data Service (SCDS) ,当前飞行风险评估等级: 无高风险
轨道信息
数据来源 国际轨道数据 AOE轨道数据
星历时间 2026-09-12T06:41:24+0800
13小时前
查看轨道信息
2026-09-05T23:00:00+0800
6天前
查看轨道信息
半长轴 6917.922km 6917.907km
偏心率 0.0001289 0.000195
轨道倾角 53.159° 53.158°
近地点辐角 96.280° 58.017°
升交点赤经 97.175° 125.587°
平近点角 263.834° 152.084°
近地点 538.893km 538.421km
远地点 540.677km 541.119km
周期 95.438分钟 95.438分钟
每日圈数 15.088267 15.088316
详细信息
固有亮度:
5
最大亮度:
2.5
卫星平台:
Starlink v1.5
覆盖范围:
全球
运营商:
太空探索技术公司
运营商所在国:
美国
制造商(研发单位):
太空探索技术公司
制造商所在国:
美国
使用方式:
暂无
卫星简介
星链(Starlink)计划是由太空探索技术公司(SpaceX)提出的一个巨型低轨卫星互联网星座项目,计划在2019年至2024年间在太空搭建由约1.2万颗卫星组成的“星链”网络,其中1584颗将部署在地球上空550千米处的近地轨道,并从2020年开始工作。该卫星仍在工作。
2D轨道图
3D轨道图
轨道高度分析图
轨道倾角分析图
轨道综合分析图
查看轨道综合分析图
与全量物体交会距离演化趋势
与全量物体交会风险概率演化趋势